This demonstration page uses our WeatherBlox Daily Observations layout. Learn more.

Left ArrowRight Arrow

39.95238, -75.16362

Hourly Observations for January 7, 2022

Temp ( °F °C ) Dew Point ( °F °C ) Humidity (%) Winds ( mph kmh ) Pressure ( in mb ) Visibility ( mi km ) Precip ( " mm )
12:43 am 00:43 Cloudy with Light Snow 33 0.6 22 -5.6 64 64 N 9 15 29.83 1010 10 16 0.00 0.00
12:50 am 00:50 Cloudy with Light Snow 34 1 23 -5 65 65 N 7 11 29.82 1010 7 11 0.00 0.00
12:54 am 00:54 Cloudy with Light Snow 33 0.6 23 -5 66 66 N 10 17 29.81 1010 7 11 0.00 0.00
1:13 am 01:13 Cloudy with Light Snow 32 0 24 -4.4 73 73 N 12 19 29.80 1009 5 8 0.00 0.00
1:20 am 01:20 Cloudy with Light Snow 32 0 25 -3.9 75 75 N 12 19 29.79 1009 3 5 0.00 0.00
1:54 am 01:54 Cloudy with Light Snow 32 0 25 -3.9 75 75 NE 10 17 29.78 1008 3 5 0.00 0.00
2:35 am 02:35 Cloudy with Light Snow 32 0 25 -3.9 75 75 NE 10 17 29.77 1008 2 2 0.00 0.00
2:54 am 02:54 Cloudy with Light Snow 31 -0.6 26 -3.3 82 82 NNE 9 15 29.77 1008 1 2 0.01 0.25
3:23 am 03:23 Cloudy with Light Snow 31 -0.6 27 -2.8 85 85 NNW 9 15 29.78 1009 1 1 0.02 0.51
3:29 am 03:29 Cloudy with Light Snow 31 -0.6 27 -2.8 85 85 NNW 12 19 29.79 1009 1 1 0.02 0.51
3:54 am 03:54 Cloudy with Light Snow 31 -0.6 28 -2.2 89 89 NW 9 15 29.79 1009 1 1 0.05 1.27
4:21 am 04:21 Cloudy with Light Snow 31 -0.6 27 -2.8 85 85 NNW 13 20 29.78 1009 1 1 0.02 0.51
4:54 am 04:54 Cloudy with Light Snow 30 -1.1 27 -2.8 88 88 NW 8 13 29.81 1009 1 1 0.05 1.27
5:00 am 05:00 Cloudy with Light Snow 31 -0.6 27 -2.8 85 85 NW 9 15 29.82 1010 1 1 0.00 0.00
5:41 am 05:41 Cloudy with Light Snow 30 -1.1 27 -2.8 88 88 NW 13 20 29.82 1010 1 2 0.04 1.02
5:54 am 05:54 Cloudy with Light Snow 30 -1.1 27 -2.8 88 88 NW 13 20 29.83 1010 1 2 0.05 1.27
6:14 am 06:14 Cloudy with Light Snow 30 -1.1 27 -2.8 88 88 WNW 10 17 29.83 1010 2 2 0.00 0.00
6:21 am 06:21 Cloudy with Light Snow 30 -1.1 27 -2.8 88 88 WNW 10 17 29.84 1011 2 3 0.01 0.25
6:33 am 06:33 Cloudy with Light Snow 31 -0.6 27 -2.8 85 85 NW 14 22 29.84 1011 3 4 0.01 0.25
6:46 am 06:46 Cloudy with Light Snow 31 -0.6 26 -3.3 82 82 NW 12 19 29.85 1011 3 5 0.01 0.25
6:54 am 06:54 Cloudy with Light Snow 31 -0.6 26 -3.3 82 82 WNW 12 19 29.85 1011 3 5 0.01 0.25
7:43 am 07:43 Mostly Cloudy with Light Snow 30 -1.1 25 -3.9 82 82 NW 10 17 29.86 1011 5 8 0.00 0.00
7:51 am 07:51 Mostly Cloudy 30 -1 25 -4 80 80 WNW 12 19 29.87 1012 7 11 0.00 0.00
7:54 am 07:54 Mostly Cloudy 30 -1.1 24 -4.4 79 79 WNW 10 17 29.86 1011 7 11 0.00 0.00
8:54 am 08:54 Mostly Cloudy 31 -0.6 23 -5 72 72 WNW 16 26 29.90 1013 10 16 0.00 0.00
9:54 am 09:54 Partly Cloudy 32 0 21 -6.1 64 64 NW 20 31 29.93 1014 10 16 0.00 0.00
10:54 am 10:54 Mostly Cloudy 33 0.6 20 -6.7 58 58 NW 18 30 29.96 1015 10 16 0.00 0.00
11:54 am 11:54 Mostly Cloudy 32 0 19 -7.2 59 59 WNW 17 28 29.95 1014 10 16 0.00 0.00
12:54 pm 12:54 Mostly Cloudy 33 0.6 17 -8.3 52 52 WNW 22 35 29.95 1014 10 16 0.00 0.00
1:54 pm 13:54 Mostly Cloudy 33 0.6 15 -9.4 47 47 WNW 17 28 29.96 1015 10 16 0.00 0.00
2:54 pm 14:54 Partly Cloudy 33 0.6 14 -10 45 45 WNW 21 33 30.00 1016 10 16 0.00 0.00
3:54 pm 15:54 Partly Cloudy 32 0 12 -11.1 43 43 WNW 25 41 30.06 1018 10 16 0.00 0.00
4:54 pm 16:54 Mostly Clear 30 -1.1 10 -12.2 43 43 WNW 21 33 30.10 1019 10 16 0.00 0.00
5:54 pm 17:54 Mostly Clear 29 -1.7 11 -11.7 47 47 W 24 39 30.14 1021 10 16 0.00 0.00
6:54 pm 18:54 Mostly Clear 28 -2.2 9 -12.8 44 44 W 20 31 30.19 1022 10 16 0.00 0.00
7:54 pm 19:54 Clear 27 -2.8 8 -13.3 45 45 W 18 30 30.23 1024 10 16 0.00 0.00
8:54 pm 20:54 Clear 27 -2.8 8 -13.3 45 45 WNW 18 30 30.25 1024 10 16 0.00 0.00
9:54 pm 21:54 Clear 26 -3.3 8 -13.3 46 46 WNW 21 33 30.27 1025 10 16 0.00 0.00
10:54 pm 22:54 Clear 26 -3.3 7 -13.9 44 44 W 15 24 30.30 1026 10 16 0.00 0.00
11:54 pm 23:54 Clear 25 -3.9 7 -13.9 46 46 W 15 24 30.32 1027 10 16 0.00 0.00

Powered by AerisWeather